Time,TemperatureF,DewpointF,PressureIn,WindDirection,WindDirectionDegrees,WindSpeedMPH,WindSpeedGustMPH,Humidity,HourlyPrecipIn,Conditions,Clouds,dailyrainin,SoftwareType,DateUTC
2013-02-08 00:14:00,48.0,47.5,29.85,SSW,202,8.9,-999.0,98,-99.99,,,0.00,Acu-Link.com,2013-02-08 08:14:00,
2013-02-08 00:29:00,47.5,47.0,29.85,SSW,202,3.7,-999.0,98,-99.99,,,0.00,Acu-Link.com,2013-02-08 08:29:00,
2013-02-08 00:44:00,47.1,46.6,29.85,SSE,157,4.7,-999.0,98,-99.99,,,0.00,Acu-Link.com,2013-02-08 08:44:00,
2013-02-08 00:59:00,46.8,46.3,29.85,SW,225,2.2,-999.0,98,-99.99,,,0.00,Acu-Link.com,2013-02-08 08:59:00,
2013-02-08 01:14:00,46.6,46.1,29.86,SW,225,5.3,-999.0,98,-99.99,,,0.00,Acu-Link.com,2013-02-08 09:14:00,
2013-02-08 01:29:00,46.9,46.4,29.85,WSW,247,9.9,-999.0,98,-99.99,,,0.00,Acu-Link.com,2013-02-08 09:29:00,
2013-02-08 01:45:00,46.6,46.1,29.85,SW,225,7.8,-999.0,98,-99.99,,,0.00,Acu-Link.com,2013-02-08 09:45:00,
2013-02-08 02:00:00,46.4,45.9,29.84,SSW,202,7.3,-999.0,98,-99.99,,,0.00,Acu-Link.com,2013-02-08 10:00:00,
2013-02-08 02:15:00,46.0,45.5,29.84,SW,225,5.8,-999.0,98,-99.99,,,0.00,Acu-Link.com,2013-02-08 10:15:00,
2013-02-08 02:30:00,46.2,45.7,29.83,WSW,247,5.3,-999.0,98,-99.99,,,0.00,Acu-Link.com,2013-02-08 10:30:00,
2013-02-08 02:45:00,46.4,45.9,29.83,SW,225,4.2,-999.0,98,-99.99,,,0.00,Acu-Link.com,2013-02-08 10:45:00,
2013-02-08 03:00:00,46.0,45.5,29.83,South,180,4.7,-999.0,98,-99.99,,,0.00,Acu-Link.com,2013-02-08 11:00:00,
2013-02-08 03:15:00,45.9,45.4,29.83,West,270,4.7,-999.0,98,-99.99,,,0.00,Acu-Link.com,2013-02-08 11:15:00,
2013-02-08 03:30:00,45.5,45.0,29.83,South,180,4.2,-999.0,98,-99.99,,,0.00,Acu-Link.com,2013-02-08 11:30:00,
2013-02-08 03:45:00,45.3,44.8,29.83,West,270,5.8,-999.0,98,-99.99,,,0.00,Acu-Link.com,2013-02-08 11:45:00,
2013-02-08 04:01:00,45.3,44.8,29.83,SW,225,9.9,-999.0,98,-99.99,,,0.00,Acu-Link.com,2013-02-08 12:01:00,
2013-02-08 04:16:00,44.8,44.3,29.83,North,0,3.7,-999.0,98,-99.99,,,0.00,Acu-Link.com,2013-02-08 12:16:00,
2013-02-08 04:31:00,44.8,44.3,29.82,SW,225,3.7,-999.0,98,-99.99,,,0.00,Acu-Link.com,2013-02-08 12:31:00,
2013-02-08 04:46:00,44.6,44.1,29.83,West,270,3.2,-999.0,98,-99.99,,,0.00,Acu-Link.com,2013-02-08 12:46:00,
2013-02-08 05:01:00,44.8,44.3,29.84,SW,225,5.8,-999.0,98,-99.99,,,0.00,Acu-Link.com,2013-02-08 13:01:00,
2013-02-08 05:16:00,44.1,43.6,29.83,East,90,0.0,-999.0,98,-99.99,,,0.00,Acu-Link.com,2013-02-08 13:16:00,
2013-02-08 05:32:00,43.3,42.8,29.82,WSW,247,2.7,-999.0,98,-99.99,,,0.00,Acu-Link.com,2013-02-08 13:32:00,
2013-02-08 05:47:00,44.1,43.6,29.82,WSW,247,4.2,-999.0,98,-99.99,,,0.00,Acu-Link.com,2013-02-08 13:47:00,
2013-02-08 06:02:00,43.9,43.4,29.82,West,270,8.3,-999.0,98,-99.99,,,0.00,Acu-Link.com,2013-02-08 14:02:00,
2013-02-08 06:17:00,44.4,43.9,29.83,WSW,247,3.2,-999.0,98,-99.99,,,0.00,Acu-Link.com,2013-02-08 14:17:00,
2013-02-08 06:32:00,44.8,44.3,29.83,SSW,202,2.7,-999.0,98,-99.99,,,0.00,Acu-Link.com,2013-02-08 14:32:00,
2013-02-08 06:47:00,44.6,44.1,29.83,ESE,112,8.9,-999.0,98,-99.99,,,0.00,Acu-Link.com,2013-02-08 14:47:00,
2013-02-08 07:02:00,45.1,44.6,29.83,SW,225,2.7,-999.0,98,-99.99,,,0.00,Acu-Link.com,2013-02-08 15:02:00,
2013-02-08 07:17:00,45.5,45.0,29.84,SSW,202,2.7,-999.0,98,-99.99,,,0.00,Acu-Link.com,2013-02-08 15:17:00,
2013-02-08 07:32:00,45.9,45.4,29.83,SSW,202,6.3,-999.0,98,-99.99,,,0.00,Acu-Link.com,2013-02-08 15:32:00,
2013-02-08 07:48:00,46.6,46.1,29.84,West,270,4.7,-999.0,98,-99.99,,,0.00,Acu-Link.com,2013-02-08 15:48:00,
2013-02-08 08:03:00,48.4,47.9,29.84,SSW,202,7.3,-999.0,98,-99.99,,,0.00,Acu-Link.com,2013-02-08 16:03:00,
2013-02-08 08:18:00,49.6,49.1,29.84,South,180,3.7,-999.0,98,-99.99,,,0.00,Acu-Link.com,2013-02-08 16:18:00,
2013-02-08 08:33:00,49.1,48.6,29.83,SSW,202,4.7,-999.0,98,-99.99,,,0.00,Acu-Link.com,2013-02-08 16:33:00,
2013-02-08 08:48:00,47.3,46.8,29.85,West,270,5.3,-999.0,98,-99.99,,,0.00,Acu-Link.com,2013-02-08 16:48:00,
2013-02-08 09:03:00,51.8,51.3,29.84,WSW,247,6.8,-999.0,98,-99.99,,,0.00,Acu-Link.com,2013-02-08 17:03:00,
2013-02-08 09:18:00,52.3,51.8,29.83,SSW,202,4.2,-999.0,98,-99.99,,,0.00,Acu-Link.com,2013-02-08 17:18:00,
2013-02-08 09:33:00,53.8,53.2,29.84,SSW,202,7.3,-999.0,98,-99.99,,,0.00,Acu-Link.com,2013-02-08 17:33:00,
2013-02-08 09:48:00,53.2,52.6,29.84,West,270,4.2,-999.0,98,-99.99,,,0.00,Acu-Link.com,2013-02-08 17:48:00,
2013-02-08 10:04:00,53.6,53.0,29.84,West,270,4.2,-999.0,98,-99.99,,,0.00,Acu-Link.com,2013-02-08 18:04:00,
2013-02-08 10:19:00,51.1,50.6,29.85,SW,225,7.8,-999.0,98,-99.99,,,0.00,Acu-Link.com,2013-02-08 18:19:00,
2013-02-08 10:49:00,55.2,54.6,29.83,SSW,202,5.8,-999.0,98,-99.99,,,0.00,Acu-Link.com,2013-02-08 18:49:00,
2013-02-08 11:04:00,55.6,55.0,29.83,WSW,247,4.7,-999.0,98,-99.99,,,0.00,Acu-Link.com,2013-02-08 19:04:00,
2013-02-08 11:19:00,53.8,53.2,29.83,SW,225,4.7,-999.0,98,-99.99,,,0.00,Acu-Link.com,2013-02-08 19:19:00,
2013-02-08 11:34:00,51.8,51.3,29.83,SW,225,7.8,-999.0,98,-99.99,,,0.00,Acu-Link.com,2013-02-08 19:34:00,
2013-02-08 11:49:00,50.7,50.2,29.82,SSW,202,7.3,-999.0,98,-99.99,,,0.00,Acu-Link.com,2013-02-08 19:49:00,
2013-02-08 12:04:00,51.4,50.9,29.81,SW,225,11.4,-999.0,98,-99.99,,,0.00,Acu-Link.com,2013-02-08 20:04:00,
2013-02-08 12:20:00,50.5,50.0,29.79,SSW,202,14.5,-999.0,98,-99.99,,,0.00,Acu-Link.com,2013-02-08 20:20:00,
2013-02-08 12:35:00,48.7,48.2,29.79,South,180,7.3,-999.0,98,-99.99,,,0.00,Acu-Link.com,2013-02-08 20:35:00,
2013-02-08 12:50:00,48.6,48.1,29.79,SW,225,5.8,-999.0,98,-99.99,,,0.00,Acu-Link.com,2013-02-08 20:50:00,
2013-02-08 13:05:00,52.9,52.4,29.78,SSW,202,7.3,-999.0,98,-99.99,,,0.00,Acu-Link.com,2013-02-08 21:05:00,
2013-02-08 13:20:00,51.3,50.8,29.76,South,180,9.4,-999.0,98,-99.99,,,0.00,Acu-Link.com,2013-02-08 21:20:00,
2013-02-08 13:35:00,50.5,50.0,29.77,SW,225,8.9,-999.0,98,-99.99,,,0.00,Acu-Link.com,2013-02-08 21:35:00,
2013-02-08 13:50:00,51.1,50.6,29.76,SSW,202,3.7,-999.0,98,-99.99,,,0.00,Acu-Link.com,2013-02-08 21:50:00,
2013-02-08 14:05:00,52.5,52.0,29.75,SW,225,6.3,-999.0,98,-99.99,,,0.00,Acu-Link.com,2013-02-08 22:05:00,
2013-02-08 14:20:00,52.3,51.8,29.75,SW,225,6.3,-999.0,98,-99.99,,,0.00,Acu-Link.com,2013-02-08 22:20:00,
2013-02-08 14:36:00,50.4,49.9,29.76,SSW,202,6.8,-999.0,98,-99.99,,,0.00,Acu-Link.com,2013-02-08 22:36:00,
2013-02-08 14:51:00,49.3,48.8,29.76,West,270,4.7,-999.0,98,-99.99,,,0.00,Acu-Link.com,2013-02-08 22:51:00,
2013-02-08 15:06:00,48.7,48.2,29.74,SSE,157,7.3,-999.0,98,-99.99,,,0.00,Acu-Link.com,2013-02-08 23:06:00,
2013-02-08 15:21:00,47.7,47.2,29.74,SW,225,8.9,-999.0,98,-99.99,,,0.00,Acu-Link.com,2013-02-08 23:21:00,
2013-02-08 15:36:00,46.8,46.3,29.74,SW,225,5.3,-999.0,98,-99.99,,,0.00,Acu-Link.com,2013-02-08 23:36:00,
2013-02-08 15:51:00,46.6,46.1,29.74,West,270,3.2,-999.0,98,-99.99,,,0.00,Acu-Link.com,2013-02-08 23:51:00,
2013-02-08 16:06:00,47.1,46.6,29.75,SW,225,4.2,-999.0,98,-99.99,,,0.00,Acu-Link.com,2013-02-09 00:06:00,
2013-02-08 16:22:00,46.8,46.3,29.74,NW,315,3.2,-999.0,98,-99.99,,,0.00,Acu-Link.com,2013-02-09 00:22:00,
2013-02-08 16:37:00,46.6,46.1,29.74,WSW,247,4.2,-999.0,98,-99.99,,,0.00,Acu-Link.com,2013-02-09 00:37:00,
2013-02-08 16:52:00,47.5,47.0,29.74,West,270,4.7,-999.0,98,-99.99,,,0.01,Acu-Link.com,2013-02-09 00:52:00,
2013-02-08 17:07:00,46.8,46.3,29.75,South,180,4.2,-999.0,98,-99.99,,,0.01,Acu-Link.com,2013-02-09 01:07:00,
2013-02-08 17:22:00,46.6,46.1,29.75,SSW,202,4.7,-999.0,98,-99.99,,,0.01,Acu-Link.com,2013-02-09 01:22:00,
2013-02-08 17:37:00,46.2,45.7,29.73,WSW,247,2.2,-999.0,98,-99.99,,,0.01,Acu-Link.com,2013-02-09 01:37:00,
2013-02-08 17:52:00,46.4,45.9,29.73,SSE,157,0.0,-999.0,98,-99.99,,,0.01,Acu-Link.com,2013-02-09 01:52:00,
2013-02-08 18:07:00,46.4,45.9,29.73,NE,45,0.0,-999.0,98,-99.99,,,0.01,Acu-Link.com,2013-02-09 02:07:00,
2013-02-08 18:23:00,46.4,45.9,29.74,West,270,1.7,-999.0,98,-99.99,,,0.01,Acu-Link.com,2013-02-09 02:23:00,
2013-02-08 18:38:00,45.9,45.4,29.74,West,270,0.0,-999.0,98,-99.99,,,0.01,Acu-Link.com,2013-02-09 02:38:00,
2013-02-08 18:53:00,45.0,44.5,29.75,NW,315,2.7,-999.0,98,-99.99,,,0.01,Acu-Link.com,2013-02-09 02:53:00,
2013-02-08 19:08:00,43.9,43.4,29.76,ESE,112,0.0,-999.0,98,-99.99,,,0.01,Acu-Link.com,2013-02-09 03:08:00,
2013-02-08 19:23:00,42.8,42.3,29.76,East,90,0.0,-999.0,98,-99.99,,,0.01,Acu-Link.com,2013-02-09 03:23:00,
2013-02-08 19:38:00,42.4,41.9,29.76,ESE,112,0.0,-999.0,98,-99.99,,,0.01,Acu-Link.com,2013-02-09 03:38:00,
2013-02-08 19:53:00,41.0,40.5,29.75,ESE,112,0.0,-999.0,98,-99.99,,,0.01,Acu-Link.com,2013-02-09 03:53:00,
2013-02-08 20:08:00,40.1,39.6,29.75,ESE,112,0.0,-999.0,98,-99.99,,,0.01,Acu-Link.com,2013-02-09 04:08:00,
2013-02-08 20:23:00,39.6,39.1,29.76,ENE,67,0.0,-999.0,98,-99.99,,,0.01,Acu-Link.com,2013-02-09 04:23:00,
2013-02-08 20:39:00,39.0,38.5,29.76,SSE,157,1.7,-999.0,98,-99.99,,,0.01,Acu-Link.com,2013-02-09 04:39:00,
2013-02-08 20:54:00,38.5,38.0,29.76,ESE,112,0.0,-999.0,98,-99.99,,,0.01,Acu-Link.com,2013-02-09 04:54:00,
2013-02-08 21:09:00,38.1,37.6,29.77,East,90,0.0,-999.0,98,-99.99,,,0.01,Acu-Link.com,2013-02-09 05:09:00,
2013-02-08 21:24:00,37.8,37.3,29.77,South,180,0.0,-999.0,98,-99.99,,,0.01,Acu-Link.com,2013-02-09 05:24:00,
2013-02-08 21:39:00,37.2,36.7,29.78,South,180,0.0,-999.0,98,-99.99,,,0.01,Acu-Link.com,2013-02-09 05:39:00,
2013-02-08 21:54:00,37.0,36.5,29.79,South,180,0.0,-999.0,98,-99.99,,,0.01,Acu-Link.com,2013-02-09 05:54:00,
2013-02-08 22:09:00,36.9,36.4,29.78,ENE,67,0.0,-999.0,98,-99.99,,,0.01,Acu-Link.com,2013-02-09 06:09:00,
2013-02-08 22:25:00,37.0,36.5,29.79,ESE,112,0.0,-999.0,98,-99.99,,,0.01,Acu-Link.com,2013-02-09 06:25:00,
2013-02-08 22:40:00,37.8,37.3,29.79,SSE,157,0.0,-999.0,98,-99.99,,,0.01,Acu-Link.com,2013-02-09 06:40:00,
2013-02-08 22:55:00,38.1,37.6,29.79,South,180,0.0,-999.0,98,-99.99,,,0.01,Acu-Link.com,2013-02-09 06:55:00,
2013-02-08 23:10:00,37.8,37.3,29.79,SW,225,0.0,-999.0,98,-99.99,,,0.01,Acu-Link.com,2013-02-09 07:10:00,
2013-02-08 23:25:00,37.8,37.3,29.80,SW,225,0.0,-999.0,98,-99.99,,,0.01,Acu-Link.com,2013-02-09 07:25:00,
2013-02-08 23:40:00,37.0,36.5,29.81,SSE,157,0.0,-999.0,98,-99.99,,,0.01,Acu-Link.com,2013-02-09 07:40:00,
2013-02-08 23:55:00,36.9,36.4,29.81,SSE,157,0.0,-999.0,98,-99.99,,,0.01,Acu-Link.com,2013-02-09 07:55:00,